Effective Sunday, March 17, 2024, the National Weather Service National Data Buoy Center will discontinue its Dial-A-Buoy Interactive Voice Response system. For more information, see Service Change Notice 24-06 (PDF).

Station 46013 (LLNR 390) - BODEGA BAY - 48NM NW of San Francisco, CA Image indicating link to RSS feed of recent meteorological observations for station 46013


Conditions at 46013 as of
(8:40 am PST)
1640 GMT on 02/29/2024:
     

Click on the graph icon in the table below to see a time series plot of the last five days of that observation.

5-day plot - Wind Direction Wind Direction (WDIR):SSW ( 200 deg true )
5-day plot - Wind Speed Wind Speed (WSPD): 17.5 kts
5-day plot - Wind Gust Wind Gust (GST): 23.3 kts
5-day plot - Wave Height Wave Height (WVHT): 6.2 ft
5-day plot - Average Wave Period Average Period (APD): 5.3 sec
5-day plot - Mean Wave Direction Mean Wave Direction (MWD): NW ( 315 deg true )
5-day plot - Atmospheric Pressure Atmospheric Pressure (PRES):29.95 in
5-day plot - Air Temperature Air Temperature (ATMP): 55.2 °F
5-day plot - Dew Point Dew Point (DEWP): 54.0 °F
5-day plot - Wind Speed at 10 Meters Wind Speed at 10 meters (WSPD10M): 19.4 kts
5-day plot - Wind Speed at 20 Meters Wind Speed at 20 meters (WSPD20M): 21.4 kts
5-day plot -  Wind Speed, Wind Gust and Atmospheric Pressure Combined plot of Wind Speed, Gust, and Air Pressure
Supplemental Measurements
Highest 1-minute Wind Speed
Time (PST)5-day plot - 1-Minute Wind Speed WSPD 5-day plot - 1-Minute Wind Direction WDIR
8:39 am 21.4 kts-
Previous observations
TIME
(PST)
5-day plot - Wind Direction
WDIR
 
5-day plot - Wind Speed
WSPD
kts
5-day plot - Wind Gust
GST
kts
5-day plot - Wave Height
WVHT
ft
5-day plot - Dominant Wave Period
DPD
sec
5-day plot - Average Wave Period
APD
sec
5-day plot - Mean Wave Direction
MWD
 
5-day plot - Atmospheric Pressure
PRES
in
5-day plot - Pressure Tendency
PTDY
in
5-day plot - Air Temperature
ATMP
°F
5-day plot - Water Temperature
WTMP
°F
5-day plot - Dew Point
DEWP
°F
5-day plot - Salinity
SAL
psu
5-day plot - Visibility
VIS
nmi
5-day plot - Tide (above MLLW)
TIDE
ft
2024-02-29 08:30 amSSW 19.4 25.3----29.95- 54.9- 53.6---
2024-02-29 08:20 amSSW 19.4 23.3 6.2 115.5WNW29.95- 55.0- 54.0---
2024-02-29 08:10 amSSW 21.4 25.3 6.2-5.5WNW29.95- 55.2- 53.6---
2024-02-29 08:00 amSSW 19.4 23.3----29.95-0.01 55.4- 53.6---
2024-02-29 07:50 am S 19.4 23.3 5.9 115.4WNW29.94- 55.2- 53.6---
2024-02-29 07:40 am S 17.5 21.4 5.9-5.4WNW29.95- 55.0- 53.6---
2024-02-29 07:30 am S 17.5 21.4----29.94- 54.7- 53.4---
2024-02-29 07:20 amSSW 19.4 23.3 5.6 115.5WNW29.94- 55.0- 53.4---
2024-02-29 07:10 am S 17.5 21.4 5.6-5.5WNW29.94- 55.0- 53.4---
2024-02-29 07:00 am S 17.5 23.3----29.93-0.02 54.9- 53.4---
2024-02-29 06:50 am S 17.5 23.3 5.2 125.5 W29.93- 54.7- 53.4---
2024-02-29 06:40 am S 17.5 21.4----29.93- 54.5- 53.4---
2024-02-29 06:30 am S 17.5 21.4----29.94- 54.5- 53.4---
2024-02-29 06:20 am S 17.5 21.4 5.2 105.4 NW29.94- 54.3- 53.4---
2024-02-29 06:10 am S 15.5 19.4 5.2-5.4 NW29.95- 54.3- 53.6---
2024-02-29 06:00 am S 17.5 21.4----29.95-0.01 54.1- 53.4---
2024-02-29 05:50 am S 17.5 21.4 5.6 115.7WNW29.95- 54.0- 53.2---
2024-02-29 05:40 am S 15.5 21.4----29.95- 54.0- 53.2---
2024-02-29 05:30 am S 15.5 19.4----29.95- 54.1- 53.2---
2024-02-29 05:20 am S 15.5 19.4 5.2 105.7WNW29.95- 54.0- 52.9---
2024-02-29 05:10 am S 15.5 17.5 5.2-5.7WNW29.95- 54.3- 52.9---
2024-02-29 05:00 am S 15.5 19.4----29.95-0.04 54.0- 52.3---
2024-02-29 04:50 am S 15.5 19.4 4.6 115.7WNW29.95- 54.0- 52.3---
2024-02-29 04:40 amSSW 13.6 17.5----29.95- 54.1- 52.5---
2024-02-29 04:30 amSSW 13.6 17.5----29.95- 54.0- 52.5---
2024-02-29 04:20 amSSW 13.6 17.5 4.9 115.9WNW29.95- 54.1- 52.7---
2024-02-29 04:10 amSSW 15.5 17.5----29.95- 54.0- 52.5---
2024-02-29 04:00 amSSW 13.6 17.5----29.96-0.05 53.8- 52.3---
2024-02-29 03:50 amSSW 13.6 17.5 4.9 116.3WNW29.96- 53.6- 52.7---
2024-02-29 03:40 amSSW 15.5 19.4----29.96- 53.6- 52.3---
2024-02-29 03:30 amSSW 13.6 17.5----29.96- 53.8- 52.5---
2024-02-29 03:20 amSSW 13.6 15.5 5.2 106.7 NW29.96- 53.8- 52.3---
2024-02-29 03:10 amSSW 13.6 15.5----29.96- 53.4- 52.3---
2024-02-29 03:00 amSSW 13.6 19.4----29.97-0.04 53.2- 52.5---
2024-02-29 02:50 amSSW 11.7 17.5 5.2 107.2 NW29.97- 53.4- 52.7---
2024-02-29 02:40 amSSW 11.7 15.5----29.97- 53.4- 52.9---
2024-02-29 02:30 amSSW 11.7 17.5----29.98- 53.4- 53.1---
2024-02-29 02:20 amSSW 11.7 13.6 4.9 117.2 NW29.98- 53.1- 52.5---
2024-02-29 02:10 amSSW 11.7 13.6 4.9-7.2 NW29.98- 53.2- 52.2---
2024-02-29 02:00 amSSW 9.7 11.7----29.98-0.02 53.2- 52.2---
2024-02-29 01:50 amSSW 9.7 11.7 4.9 117.5WNW29.99- 53.2- 52.3---
2024-02-29 01:40 amSSW 9.7 13.6----29.99- 52.9- 52.0---
2024-02-29 01:30 amSSW 9.7 11.7----29.99- 52.7- 52.0---
2024-02-29 01:20 amSSW 9.7 13.6 4.3 117.5WNW29.99- 52.7- 52.0---
2024-02-29 01:10 amSSW 9.7 13.6----30.00- 52.9- 52.3---
2024-02-29 01:00 amSSW 9.7 11.7----30.00-0.01 52.9- 52.3---
2024-02-29 12:50 amSSW 7.8 9.7 4.6 117.8WNW30.00- 52.7- 52.2---
2024-02-29 12:40 amSSW 7.8 9.7----30.00- 52.7- 52.2---
2024-02-29 12:30 am SW 7.8 11.7----30.00- 52.5- 51.8---
2024-02-29 12:20 amSSW 7.8 11.7 4.9 117.9WNW30.00- 52.5- 51.8---
2024-02-29 12:10 am SW 7.8 11.7 4.9-7.9WNW30.01- 52.3- 51.8---
2024-02-29 12:00 am SW 9.7 11.7----30.01+0.00 52.7- 52.3---
2024-02-28 11:50 pm SW 7.8 11.7 4.6 117.8WNW30.01- 52.7- 52.2---
2024-02-28 11:40 pm SW 5.8 7.8----30.01- 52.5- 51.8---
2024-02-28 11:30 pm SW 5.8 9.7----30.01- 52.5- 51.8---
2024-02-28 11:20 pm SW 7.8 9.7 4.9 118.4 NW30.01- 52.3- 51.6---
2024-02-28 11:10 pm SW 5.8 7.8 4.9-8.4 NW30.01- 52.5- 52.2---
2024-02-28 11:00 pmSSW 5.8 7.8----30.01+0.00 52.3- 52.0---
2024-02-28 10:50 pm SW 5.8 7.8 4.3 117.8 NW30.01- 52.2- 51.8---
2024-02-28 10:40 pm SW 5.8 7.8 4.3-7.8 NW30.01- 52.2- 51.8---
2024-02-28 10:30 pmWSW 5.8 7.8----30.01- 52.3- 52.0---
2024-02-28 10:20 pm W 5.8 9.7 4.3 117.8WNW30.02- 52.0- 51.4---
2024-02-28 10:10 pmWSW 5.8 7.8 4.3-7.8WNW30.01- 52.2- 51.4---
2024-02-28 10:00 pm W 7.8 9.7----30.02+0.00 52.3- 51.6---
2024-02-28 09:50 pm W 7.8 9.7 4.6 117.7 NW30.01- 52.7- 51.8---
2024-02-28 09:40 pmWSW 7.8 9.7----30.02- 52.7- 51.4---
2024-02-28 09:30 pm W 7.8 9.7 4.6-7.7 NW30.01- 52.7- 51.4---
2024-02-28 09:20 pm W 5.8 9.7 4.3 117.8 NW30.01- 52.3- 51.4---
2024-02-28 09:10 pmWSW 3.9 7.8 4.3-7.8 NW30.01- 52.3- 51.6---
2024-02-28 09:00 pm W 5.8 7.8----30.01+0.00 52.2- 51.4---
2024-02-28 08:50 pm W 5.8 7.8 3.9 127.2WNW30.01- 52.3- 51.4---
2024-02-28 08:40 pm W 5.8 7.8----30.01- 52.0- 51.1---
2024-02-28 08:30 pm W 5.8 9.7----30.01- 51.8- 50.9---
2024-02-28 08:20 pm W 5.8 9.7 4.3 127.5WNW30.01- 52.0- 51.1---
2024-02-28 08:10 pm W 5.8 7.8 4.3-7.5WNW30.01- 52.0- 51.1---
2024-02-28 08:00 pmWNW 5.8 9.7----30.01+0.00 51.8- 50.9---
2024-02-28 07:50 pm W 5.8 9.7 4.9 127.4 NW30.01- 51.4- 50.7---
2024-02-28 07:40 pmWNW 7.8 11.7 4.9-7.4 NW30.01- 51.6- 51.1---
2024-02-28 07:30 pm W 7.8 11.7----30.01- 51.6- 51.3---
2024-02-28 07:20 pmWNW 7.8 9.7 4.9 117.2 NW30.01- 51.8- 51.4---
2024-02-28 07:10 pmWNW 5.8 9.7 4.9-7.2 NW30.01- 51.6- 51.3---
2024-02-28 07:00 pmWNW 7.8 9.7----30.01+0.00 51.6- 51.3---
2024-02-28 06:50 pmWNW 7.8 9.7 4.6 117.2 NW30.01- 51.8- 51.3---
2024-02-28 06:40 pmWNW 7.8 9.7----30.01- 51.8- 51.1---
2024-02-28 06:30 pmWNW 7.8 11.7----30.01- 52.0- 51.3---
2024-02-28 06:20 pmWNW 7.8 11.7 5.2 127.4WNW30.01- 52.0- 51.3---
2024-02-28 06:10 pmWNW 7.8 11.7 5.2-7.4WNW30.00- 52.0- 51.1---
2024-02-28 06:00 pmWNW 9.7 13.6----30.01-0.03 52.3- 51.3---
2024-02-28 05:50 pmWNW 9.7 13.6 4.3 116.6 NW30.01- 52.3- 51.1---
2024-02-28 05:40 pmWNW 9.7 13.6----30.01- 52.5- 50.9---
2024-02-28 05:30 pmWNW 9.7 13.6----30.01- 52.7- 50.9---
2024-02-28 05:20 pmWNW 11.7 13.6 5.2 116.8 NW30.01- 53.1- 50.9---
2024-02-28 05:10 pmWNW 9.7 11.7 5.2-6.8 NW30.01- 53.2- 50.9---
2024-02-28 05:00 pmWNW 9.7 11.7----30.01-0.04 53.2- 50.9---
2024-02-28 04:50 pmWNW 9.7 13.6 5.2 136.7WNW30.01- 53.2- 50.9---
2024-02-28 04:40 pmWNW 9.7 13.6----30.01- 53.4- 50.9---
2024-02-28 04:30 pmWNW 11.7 13.6----30.01- 53.6- 50.9---
2024-02-28 04:20 pmWNW 11.7 13.6 4.9 126.6WNW30.01- 53.8- 51.1---
2024-02-28 04:10 pmWNW 11.7 13.6 4.9-6.6WNW30.01- 54.1- 51.4---
2024-02-28 04:00 pmWNW 11.7 13.6----30.01-0.04 54.1- 51.3---
2024-02-28 03:50 pmWNW 11.7 13.6 5.9 127.2WNW30.01- 54.1- 51.3---
2024-02-28 03:40 pmWNW 11.7 13.6----30.01- 54.1- 51.3---
2024-02-28 03:30 pm NW 11.7 13.6----30.02- 54.1- 51.3---
2024-02-28 03:20 pm NW 11.7 13.6 5.2 116.8 NW30.02- 54.3- 51.4---
2024-02-28 03:10 pm NW 11.7 15.5----30.02- 54.3- 51.4---
2024-02-28 03:00 pm NW 11.7 15.5----30.03-0.04 54.3- 51.6---
2024-02-28 02:50 pm NW 11.7 15.5 5.9 127.2 NW30.03- 54.5- 51.6---
2024-02-28 02:40 pm NW 11.7 13.6----30.03- 54.5- 51.4---
2024-02-28 02:30 pm NW 11.7 15.5----30.04- 54.5- 51.3---
2024-02-28 02:20 pm NW 11.7 15.5 5.9 126.9WNW30.04- 54.5- 51.4---
2024-02-28 02:10 pm NW 11.7 15.5 5.9-6.9WNW30.04- 54.5- 51.3---
2024-02-28 02:00 pmWNW 11.7 15.5----30.04-0.04 54.5- 51.1---
2024-02-28 01:50 pm NW 11.7 13.6 6.2 117.2 NW30.04- 54.3- 50.7---
2024-02-28 01:40 pmWNW 11.7 13.6 6.2-7.2 NW30.04- 54.3- 50.5---
2024-02-28 01:30 pm NW 9.7 13.6----30.05- 54.3- 50.4---
2024-02-28 01:20 pm NW 9.7 13.6 6.6 127.8WNW30.05- 54.3- 50.4---
2024-02-28 01:10 pm NW 9.7 11.7----30.05- 54.1- 50.0---
2024-02-28 01:00 pm NW 7.8 11.7----30.05-0.04 54.1- 50.0---
2024-02-28 12:50 pm NW 7.8 11.7 6.6 127.5 NW30.05- 54.1- 50.0---
2024-02-28 12:40 pm NW 7.8 9.7----30.06- 54.0- 49.5---
2024-02-28 12:30 pmWNW 7.8 9.7----30.07- 53.8- 48.7---
2024-02-28 12:20 pm NW 5.8 9.7 6.6 117.5 NW30.06- 53.8- 48.7---
2024-02-28 12:10 pmWNW 5.8 7.8 6.6-7.5 NW30.06- 53.8- 48.9---
2024-02-28 12:00 pm NW 3.9 7.8----30.07-0.01 54.0- 49.5---
2024-02-28 11:50 amNNW 3.9 5.8 5.9 127.2 NW30.07- 53.8- 49.5---
2024-02-28 11:40 amNNW 3.9 5.8----30.07- 54.0- 49.8---
2024-02-28 11:30 amNNW 3.9 7.8----30.09- 54.3- 50.5---
2024-02-28 11:20 am N 1.9 3.9 6.6 137.6 NW30.08- 54.5- 50.4---
2024-02-28 11:10 am- 0.0 3.9 6.6-7.6 NW30.08- 54.5- 50.4---
2024-02-28 11:00 amNNE 1.9 3.9----30.08+0.00 54.5- 50.4---
2024-02-28 10:50 am NE 1.9 1.9 6.6 127.7 NW30.08- 54.7- 50.4---
2024-02-28 10:40 amNNE 1.9 1.9----30.08- 54.7- 50.4---
2024-02-28 10:30 am- 0.0 3.9----30.08- 54.9- 50.2---
2024-02-28 10:20 am- 0.0 1.9 6.2 137.5 NW30.09- 54.9- 50.2---
2024-02-28 10:10 am- 0.0 1.9 6.2-7.5 NW30.09- 54.9- 50.2---
2024-02-28 10:00 am- 0.0 1.9----30.09+0.02 55.2- 50.4---
2024-02-28 09:50 am- 0.0 1.9 6.2 127.5 NW30.09- 55.0- 50.2---
2024-02-28 09:40 am- 0.0 3.9----30.09- 54.7- 50.0---
2024-02-28 09:30 am E 1.9 3.9----30.09- 54.7- 50.0---
2024-02-28 09:20 amENE 1.9 3.9 6.6 117.5 NW30.08- 54.7- 50.2---
2024-02-28 09:10 amENE 1.9 3.9----30.08- 54.7- 50.0---
2024-02-28 09:00 amENE 1.9 3.9----30.08+0.03 54.3- 49.8---
2024-02-28 08:50 am E 1.9 5.8 6.6 127.4 NW30.08- 54.3- 50.0---

Detailed Wave Summary
for 46013 as of (8:40 am PST)
1640 GMT on 02/29/2024:

These wave data are displayed in rounded times.

     

Click on the graph icon in the table below to see a time series plot of the last five days of that observation.

5-day plot - Significant Wave Height Significant Wave Height (WVHT): 6.2 ft
5-day plot - Swell Height Swell Height (SwH): 3.3 ft
5-day plot - Swell Period Swell Period (SwP): 10.8 sec
5-day plot - Swell Direction Swell Direction (SwD): NW
5-day plot - Wind Wave Height Wind Wave Height (WWH): 5.2 ft
5-day plot - Wind Wave Period Wind Wave Period (WWP): 5.3 sec
5-day plot - Wind Wave Direction Wind Wave Direction (WWD):WSW
5-day plot - Wave Steepness Wave Steepness (STEEPNESS): AVERAGE
5-day plot - Average Wave Period Average Wave Period (APD): 5.3 sec
Previous observations
TIME
(PST)
5-day plot - Wave Height
WVHT
ft
5-day plot - Swell Height
SwH
ft
5-day plot - Swell Period
SwP
sec
5-day plot - Swell Direction
SwD
 
5-day plot - Wind Wave Height
WWH
ft
5-day plot - Wind Wave Period
WWP
sec
5-day plot - Wind Wave Direction
WWD
 
5-day plot - Wave Steepness
STEEPNESS
 
5-day plot - Average Wave Period
APD
sec
2024-02-29 08:10 am 6.2 3.6 11.4WNW 5.2 4.8 SW AVERAGE 5.5
2024-02-29 07:40 am 5.9 3.6 10.8WNW 4.6 4.5 SSW AVERAGE 5.4
2024-02-29 07:10 am 5.6 3.9 10.8WNW 3.9 4.3 SSW SWELL 5.5
2024-02-29 06:40 am 5.2 3.9 12.1 W 3.6 4.2 SSW SWELL 5.5
2024-02-29 06:10 am 5.2 3.9 10.0 NW 3.3 4.2 WSW SWELL 5.4
2024-02-29 05:40 am 5.6 4.6 10.8WNW 3.0 4.0 SW SWELL 5.7
2024-02-29 05:10 am 5.2 4.3 10.0WNW 3.0 3.8 WSW SWELL 5.7
2024-02-29 04:40 am 4.6 3.9 10.8WNW 2.6 3.6 WSW SWELL 5.7
2024-02-29 04:10 am 4.9 4.3 10.8WNW 2.3 3.6 WSW SWELL 5.9
2024-02-29 03:40 am 4.9 4.6 10.8WNW 2.3 3.3 WSW SWELL 6.3
2024-02-29 03:10 am 5.2 4.9 10.0 NW 2.3 5.9 WNW SWELL 6.7
2024-02-29 02:40 am 5.2 4.9 10.0 NW 2.0 5.3 WNW SWELL 7.2
2024-02-29 02:10 am 4.9 4.6 11.4 NW 1.6 5.3 WNW SWELL 7.2
2024-02-29 01:40 am 4.9 4.6 10.8WNW 1.3 5.0 W SWELL 7.5
2024-02-29 01:10 am 4.3 3.9 11.4WNW 1.0 4.5 WNW SWELL 7.5
2024-02-29 12:40 am 4.6 4.6 11.4WNW 1.0 3.7 W SWELL 7.8
2024-02-29 12:10 am 4.9 4.6 10.8WNW 1.0 4.2 W SWELL 7.9
2024-02-28 11:40 pm 4.6 4.6 11.4WNW 1.0 3.3 WNW SWELL 7.8
2024-02-28 11:10 pm 4.9 4.9 11.4 NW 1.0 4.0 WNW SWELL 8.4
2024-02-28 10:40 pm 4.3 4.3 10.8 NW 1.0 3.7 WNW SWELL 7.8
2024-02-28 10:10 pm 4.3 4.3 11.4WNW 1.0 3.8 WNW SWELL 7.8
2024-02-28 09:40 pm 4.6 4.6 11.4 NW 1.0 4.0 WNW SWELL 7.7
2024-02-28 09:10 pm 4.3 4.3 11.4 NW 1.0 3.8 WNW SWELL 7.8
2024-02-28 08:40 pm 3.9 3.9 12.1WNW 1.0 3.8 WNW SWELL 7.2
2024-02-28 08:10 pm 4.3 4.3 12.1WNW 1.0 4.0 NW SWELL 7.5
2024-02-28 07:40 pm 4.9 4.6 12.1 NW 1.0 3.6 WNW SWELL 7.4
2024-02-28 07:10 pm 4.9 4.6 11.4 NW 1.3 4.0 NW SWELL 7.2
2024-02-28 06:40 pm 4.6 4.6 10.8 NW 1.3 4.0 WNW SWELL 7.2
2024-02-28 06:10 pm 5.2 4.9 12.1WNW 1.3 3.7 WNW SWELL 7.4
2024-02-28 05:40 pm 4.3 3.9 11.4 NW 1.6 4.3 WNW SWELL 6.6
2024-02-28 05:10 pm 5.2 4.9 11.4 NW 1.6 4.5 WNW SWELL 6.8
2024-02-28 04:40 pm 5.2 4.9 12.9WNW 2.0 4.8 WNW SWELL 6.7
2024-02-28 04:10 pm 4.9 4.6 12.1WNW 2.0 5.0 WNW SWELL 6.6
2024-02-28 03:40 pm 5.9 5.6 12.1WNW 2.0 5.3 WNW SWELL 7.2
2024-02-28 03:10 pm 5.2 4.9 11.4 NW 2.3 5.6 WNW SWELL 6.8
2024-02-28 02:40 pm 5.9 5.6 12.1 NW 2.3 5.6 WNW SWELL 7.2
2024-02-28 02:10 pm 5.9 5.2 12.1WNW 2.6 5.3 WNW SWELL 6.9
2024-02-28 01:40 pm 6.2 5.9 11.4 NW 2.3 4.8 WNW SWELL 7.2
2024-02-28 01:10 pm 6.6 6.2 12.1WNW 1.6 4.5 WNW SWELL 7.8
2024-02-28 12:40 pm 6.6 6.2 12.1 NW 1.3 3.4 WNW SWELL 7.5
2024-02-28 12:10 pm 6.6 6.6 11.4 NW 1.3 4.0 WNW SWELL 7.5
2024-02-28 11:40 am 5.9 5.9 12.1 NW 1.3 4.0 WNW SWELL 7.2
2024-02-28 11:10 am 6.6 6.6 12.9 NW 1.3 4.0 NW SWELL 7.6
2024-02-28 10:40 am 6.6 6.6 12.1 NW 1.3 3.7 WNW SWELL 7.7
2024-02-28 10:10 am 6.2 6.2 12.9 NW 1.3 4.0 NW SWELL 7.5
2024-02-28 09:40 am 6.2 6.2 12.1 NW 1.3 3.6 WNW SWELL 7.5
2024-02-28 09:10 am 6.6 6.2 11.4 NW 1.3 3.6 WNW SWELL 7.5

Plot of wave energy versus frequency (and period)